Time,TemperatureF,DewpointF,PressureIn,WindDirection,WindDirectionDegrees,WindSpeedMPH,WindSpeedGustMPH,Humidity,HourlyPrecipIn,Conditions,Clouds,dailyrainin,SoftwareType,DateUTC
2013-11-16 05:13:00,37.2,32.2,30.13,SSE,157,0.0,-999.0,82,-99.99,,,0.00,Acu-Link.com,2013-11-16 10:13:00,
2013-11-16 05:28:00,37.2,32.2,30.14,NE,45,0.0,-999.0,82,-99.99,,,0.00,Acu-Link.com,2013-11-16 10:28:00,
2013-11-16 05:43:00,36.9,31.9,30.14,NNE,22,1.1,-999.0,82,-99.99,,,0.00,Acu-Link.com,2013-11-16 10:43:00,
2013-11-16 05:58:00,36.7,32.0,30.15,SSE,157,0.0,-999.0,83,-99.99,,,0.00,Acu-Link.com,2013-11-16 10:58:00,
2013-11-16 06:13:00,36.3,31.6,30.16,SSE,157,0.0,-999.0,83,-99.99,,,0.00,Acu-Link.com,2013-11-16 11:13:00,
2013-11-16 06:29:00,36.0,31.3,30.16,SE,135,0.0,-999.0,83,-99.99,,,0.00,Acu-Link.com,2013-11-16 11:29:00,
2013-11-16 06:44:00,36.0,31.3,30.16,SE,135,0.0,-999.0,83,-99.99,,,0.00,Acu-Link.com,2013-11-16 11:44:00,
2013-11-16 06:59:00,36.7,32.0,30.16,SSW,202,0.0,-999.0,83,-99.99,,,0.00,Acu-Link.com,2013-11-16 11:59:00,
2013-11-16 07:14:00,36.9,32.2,30.17,WSW,247,0.0,-999.0,83,-99.99,,,0.00,Acu-Link.com,2013-11-16 12:14:00,
2013-11-16 07:29:00,37.2,32.5,30.17,NNE,22,0.0,-999.0,83,-99.99,,,0.00,Acu-Link.com,2013-11-16 12:29:00,
2013-11-16 07:44:00,38.1,31.9,30.19,SW,225,1.1,-999.0,78,-99.99,,,0.00,Acu-Link.com,2013-11-16 12:44:00,
2013-11-16 07:59:00,39.9,31.3,30.18,West,270,0.0,-999.0,71,-99.99,,,0.00,Acu-Link.com,2013-11-16 12:59:00,
2013-11-16 08:14:00,41.5,30.6,30.20,WNW,292,0.0,-999.0,65,-99.99,,,0.00,Acu-Link.com,2013-11-16 13:14:00,
2013-11-16 08:29:00,43.9,30.1,30.20,WNW,292,2.2,-999.0,58,-99.99,,,0.00,Acu-Link.com,2013-11-16 13:29:00,
2013-11-16 08:45:00,44.8,31.8,30.19,NNW,337,0.0,-999.0,60,-99.99,,,0.00,Acu-Link.com,2013-11-16 13:45:00,
2013-11-16 09:00:00,45.3,31.4,30.19,NNE,22,0.0,-999.0,58,-99.99,,,0.00,Acu-Link.com,2013-11-16 14:00:00,
2013-11-16 09:15:00,45.9,32.0,30.19,South,180,0.0,-999.0,58,-99.99,,,0.00,Acu-Link.com,2013-11-16 14:15:00,
2013-11-16 09:30:00,46.9,30.2,30.20,NNE,22,0.0,-999.0,52,-99.99,,,0.00,Acu-Link.com,2013-11-16 14:30:00,
2013-11-16 09:45:00,48.7,29.9,30.19,West,270,0.0,-999.0,48,-99.99,,,0.00,Acu-Link.com,2013-11-16 14:45:00,
2013-11-16 10:00:00,50.5,27.7,30.19,WSW,247,1.1,-999.0,41,-99.99,,,0.00,Acu-Link.com,2013-11-16 15:00:00,
2013-11-16 10:16:00,51.8,28.9,30.19,NW,315,2.7,-999.0,41,-99.99,,,0.00,Acu-Link.com,2013-11-16 15:16:00,
2013-11-16 10:31:00,55.2,28.0,30.19,SW,225,2.2,-999.0,35,-99.99,,,0.00,Acu-Link.com,2013-11-16 15:31:00,
2013-11-16 10:46:00,57.4,30.0,30.19,NW,315,2.2,-999.0,35,-99.99,,,0.00,Acu-Link.com,2013-11-16 15:46:00,
2013-11-16 11:01:00,58.5,33.6,30.18,South,180,4.2,-999.0,39,-99.99,,,0.00,Acu-Link.com,2013-11-16 16:01:00,
2013-11-16 11:16:00,58.6,36.8,30.18,WNW,292,4.2,-999.0,44,-99.99,,,0.00,Acu-Link.com,2013-11-16 16:16:00,
2013-11-16 11:32:00,59.7,36.6,30.17,ESE,112,4.2,-999.0,42,-99.99,,,0.00,Acu-Link.com,2013-11-16 16:32:00,
2013-11-16 11:47:00,60.4,36.6,30.17,SE,135,2.7,-999.0,41,-99.99,,,0.00,Acu-Link.com,2013-11-16 16:47:00,
2013-11-16 12:02:00,60.8,26.6,30.16,South,180,2.2,-999.0,27,-99.99,,,0.00,Acu-Link.com,2013-11-16 17:02:00,
2013-11-16 12:17:00,61.2,25.1,30.15,SW,225,4.2,-999.0,25,-99.99,,,0.00,Acu-Link.com,2013-11-16 17:17:00,
2013-11-16 12:32:00,61.3,24.2,30.15,SW,225,3.7,-999.0,24,-99.99,,,0.00,Acu-Link.com,2013-11-16 17:32:00,
2013-11-16 12:48:00,60.8,23.8,30.15,SW,225,3.2,-999.0,24,-99.99,,,0.00,Acu-Link.com,2013-11-16 17:48:00,
2013-11-16 13:03:00,60.6,24.6,30.15,WSW,247,2.2,-999.0,25,-99.99,,,0.00,Acu-Link.com,2013-11-16 18:03:00,
2013-11-16 13:18:00,61.0,24.9,30.15,West,270,4.2,-999.0,25,-99.99,,,0.00,Acu-Link.com,2013-11-16 18:18:00,
2013-11-16 13:33:00,61.2,24.1,30.15,WNW,292,2.2,-999.0,24,-99.99,,,0.00,Acu-Link.com,2013-11-16 18:33:00,
2013-11-16 13:48:00,60.4,23.5,30.14,West,270,0.0,-999.0,24,-99.99,,,0.00,Acu-Link.com,2013-11-16 18:48:00,
2013-11-16 14:03:00,61.2,23.1,30.15,North,0,4.2,-999.0,23,-99.99,,,0.00,Acu-Link.com,2013-11-16 19:03:00,
2013-11-16 14:18:00,60.8,23.8,30.15,NW,315,3.2,-999.0,24,-99.99,,,0.00,Acu-Link.com,2013-11-16 19:18:00,
2013-11-16 14:33:00,60.3,23.4,30.16,WNW,292,1.1,-999.0,24,-99.99,,,0.00,Acu-Link.com,2013-11-16 19:33:00,
2013-11-16 14:48:00,59.7,22.9,30.17,SSE,157,0.0,-999.0,24,-99.99,,,0.00,Acu-Link.com,2013-11-16 19:48:00,
2013-11-16 15:04:00,59.5,22.7,30.17,WSW,247,0.0,-999.0,24,-99.99,,,0.00,Acu-Link.com,2013-11-16 20:04:00,
2013-11-16 15:19:00,58.8,22.1,30.17,SSW,202,0.0,-999.0,24,-99.99,,,0.00,Acu-Link.com,2013-11-16 20:19:00,
2013-11-16 15:34:00,57.9,24.1,30.17,North,0,0.0,-999.0,27,-99.99,,,0.00,Acu-Link.com,2013-11-16 20:34:00,
2013-11-16 15:49:00,56.5,26.2,30.17,East,90,0.0,-999.0,31,-99.99,,,0.00,Acu-Link.com,2013-11-16 20:49:00,
2013-11-16 16:04:00,51.6,26.8,30.18,ESE,112,0.0,-999.0,38,-99.99,,,0.00,Acu-Link.com,2013-11-16 21:04:00,
2013-11-16 16:19:00,50.0,27.2,30.18,ESE,112,0.0,-999.0,41,-99.99,,,0.00,Acu-Link.com,2013-11-16 21:19:00,
2013-11-16 16:34:00,47.8,26.4,30.18,ESE,112,0.0,-999.0,43,-99.99,,,0.00,Acu-Link.com,2013-11-16 21:34:00,
2013-11-16 16:49:00,45.9,26.3,30.18,SW,225,0.0,-999.0,46,-99.99,,,0.00,Acu-Link.com,2013-11-16 21:49:00,
2013-11-16 17:04:00,43.7,26.8,30.19,SSW,202,0.0,-999.0,51,-99.99,,,0.00,Acu-Link.com,2013-11-16 22:04:00,
2013-11-16 17:20:00,42.3,26.4,30.20,South,180,0.0,-999.0,53,-99.99,,,0.00,Acu-Link.com,2013-11-16 22:20:00,
2013-11-16 17:35:00,41.0,25.2,30.20,SW,225,0.0,-999.0,53,-99.99,,,0.00,Acu-Link.com,2013-11-16 22:35:00,
2013-11-16 17:50:00,39.7,24.9,30.20,WNW,292,0.0,-999.0,55,-99.99,,,0.00,Acu-Link.com,2013-11-16 22:50:00,
2013-11-16 18:05:00,38.8,24.9,30.20,West,270,0.0,-999.0,57,-99.99,,,0.00,Acu-Link.com,2013-11-16 23:05:00,
2013-11-16 18:20:00,37.9,24.9,30.21,West,270,0.0,-999.0,59,-99.99,,,0.00,Acu-Link.com,2013-11-16 23:20:00,
2013-11-16 18:35:00,36.9,25.5,30.20,West,270,0.0,-999.0,63,-99.99,,,0.00,Acu-Link.com,2013-11-16 23:35:00,
2013-11-16 18:50:00,36.9,25.5,30.20,NNW,337,0.0,-999.0,63,-99.99,,,0.00,Acu-Link.com,2013-11-16 23:50:00,
2013-11-16 19:05:00,37.0,26.0,30.20,NE,45,0.0,-999.0,64,-99.99,,,0.00,Acu-Link.com,2013-11-17 00:05:00,
2013-11-16 19:20:00,36.1,25.5,30.20,WSW,247,0.0,-999.0,65,-99.99,,,0.00,Acu-Link.com,2013-11-17 00:20:00,
2013-11-16 19:35:00,35.2,25.7,30.21,SSW,202,0.0,-999.0,68,-99.99,,,0.00,Acu-Link.com,2013-11-17 00:35:00,
2013-11-16 19:51:00,34.5,25.0,30.21,SSW,202,0.0,-999.0,68,-99.99,,,0.00,Acu-Link.com,2013-11-17 00:51:00,
2013-11-16 20:06:00,33.8,25.1,30.22,WNW,292,0.0,-999.0,70,-99.99,,,0.00,Acu-Link.com,2013-11-17 01:06:00,
2013-11-16 20:21:00,33.4,25.0,30.22,ESE,112,0.0,-999.0,71,-99.99,,,0.00,Acu-Link.com,2013-11-17 01:21:00,
2013-11-16 20:36:00,32.7,24.7,30.22,ESE,112,0.0,-999.0,72,-99.99,,,0.00,Acu-Link.com,2013-11-17 01:36:00,
2013-11-16 20:51:00,32.2,24.9,30.22,WSW,247,0.0,-999.0,74,-99.99,,,0.00,Acu-Link.com,2013-11-17 01:51:00,
2013-11-16 21:06:00,31.6,24.6,30.22,WSW,247,0.0,-999.0,75,-99.99,,,0.00,Acu-Link.com,2013-11-17 02:06:00,
2013-11-16 21:21:00,31.3,24.6,30.22,SW,225,0.0,-999.0,76,-99.99,,,0.00,Acu-Link.com,2013-11-17 02:21:00,
2013-11-16 21:36:00,30.4,24.1,30.22,SW,225,0.0,-999.0,77,-99.99,,,0.00,Acu-Link.com,2013-11-17 02:36:00,
2013-11-16 21:51:00,30.4,25.0,30.21,SW,225,0.0,-999.0,80,-99.99,,,0.00,Acu-Link.com,2013-11-17 02:51:00,
2013-11-16 22:07:00,29.8,24.7,30.21,WSW,247,0.0,-999.0,81,-99.99,,,0.00,Acu-Link.com,2013-11-17 03:07:00,
2013-11-16 22:22:00,29.3,24.5,30.22,SW,225,0.0,-999.0,82,-99.99,,,0.00,Acu-Link.com,2013-11-17 03:22:00,
2013-11-16 22:37:00,28.8,24.0,30.22,SW,225,0.0,-999.0,82,-99.99,,,0.00,Acu-Link.com,2013-11-17 03:37:00,
2013-11-16 22:52:00,29.3,25.1,30.22,South,180,0.0,-999.0,84,-99.99,,,0.00,Acu-Link.com,2013-11-17 03:52:00,
2013-11-16 23:07:00,28.6,24.7,30.23,NNW,337,0.0,-999.0,85,-99.99,,,0.00,Acu-Link.com,2013-11-17 04:07:00,
2013-11-16 23:22:00,28.2,24.3,30.22,West,270,0.0,-999.0,85,-99.99,,,0.00,Acu-Link.com,2013-11-17 04:22:00,
2013-11-16 23:37:00,27.9,24.3,30.22,North,0,0.0,-999.0,86,-99.99,,,0.00,Acu-Link.com,2013-11-17 04:37:00,
2013-11-16 23:52:00,27.9,24.3,30.22,SSW,202,0.0,-999.0,86,-99.99,,,0.00,Acu-Link.com,2013-11-17 04:52:00,